Flag for Germany Weather past 2 weeks in Springe, Lower Saxony, Germany

Now
64 °F

Mild.


Feels Like: 64 °F
Forecast: 56 / 73 °F
Wind: 3 mph from East

Location: Wunstorf Airport

Current Time: Sep 16, 2014 at 11:50:14 PM

Latest Report: Sep 16, 2014 at 10:20 PM


Visibility: 6 mi

Pressure: 30.04 "Hg

Humidity: 83%

Dew point: 59 °F

Location of SpringeLocation

Historic Weather in Springe — Graph

°F

Springe temperature yesterday

Maximum temperature yesterday: 68 °F (at 2:20 PM)
Minimum temperature yesterday: 59 °F (at 12:20 AM)
Average temperature yesterday: 63 °F

Past Weeks' High & Low Weather Summary

 TemperatureHumidityPressure
High77 °F (Sep 5, 3:20 PM)100% (Sep 1, 10:20 PM)30.30 "Hg (Sep 1, 10:20 PM)
Low48 °F (Sep 3, 5:20 AM)50% (Sep 12, 3:20 PM)29.86 "Hg (Sep 6, 4:20 PM)
Average62 °F84%30.08 "Hg
* Reported Sep 1 10:20 PM — Sep 16 10:20 PM, Springe, Weather by CustomWeather, © 2014

Note: Actual official high and low records may vary slightly from our data, if they occured in-between our weather recording intervals... More about our weather records

Advertising

Springe weather history for previous 24 hours

 ConditionsComfort  
Time TempWeatherWind HumidityBarometerVisibility
10:20 PM
Sep 16
64 °FMild.3 mph83%30.04 "Hg6 mi
9:20 PM66 °FMild.6 mph78%30.01 "Hg6 mi
8:20 PM68 °FMild.6 mph73%30.01 "HgN/A
7:20 PM70 °FPassing clouds.7 mph69%30.01 "HgN/A
6:20 PM72 °FScattered clouds.8 mph61%30.01 "HgN/A
5:20 PM73 °FScattered clouds.10 mph65%30.01 "HgN/A
4:50 PM73 °FScattered clouds.12 mph69%30.01 "HgN/A
4:20 PM75 °FScattered clouds.12 mph61%30.01 "HgN/A
3:20 PM75 °FPassing clouds.10 mph61%30.01 "HgN/A
2:20 PM75 °FPassing clouds.13 mph61%30.01 "HgN/A
1:20 PM72 °FPassing clouds.10 mph69%30.04 "HgN/A
12:20 PM70 °FScattered clouds.10 mph69%30.04 "HgN/A
11:20 AM66 °FScattered clouds.9 mph78%30.04 "Hg6 mi
10:20 AM61 °FPartly sunny.7 mph94%30.07 "Hg5 mi
9:20 AM59 °FFog.6 mph94%30.07 "Hg3 mi
8:20 AM57 °FFog.6 mph94%30.07 "Hg2 mi
7:46 AM57 °FFog.5 mph94%30.07 "Hg2 mi
7:20 AM57 °FFog.5 mph94%30.04 "Hg2 mi
6:20 AM57 °FFog.6 mph100%30.04 "Hg2 mi
5:20 AM59 °FFog.6 mph94%30.04 "Hg2 mi
4:20 AM59 °FFog.5 mph100%30.04 "Hg2 mi
3:20 AM59 °FFog.6 mph100%30.04 "Hg2 mi
2:20 AM59 °FCool.1 mph100%30.07 "Hg0 mi
1:20 AM61 °FCool.5 mph100%30.07 "Hg1 mi
12:20 AM61 °FCool.5 mph100%30.07 "Hg2 mi
11:20 PM
Sep 15
59 °FCool.3 mph100%30.07 "Hg1 mi
Weather by CustomWeather, © 2014

See weather overviewHow to use our weather pages